QPF
0.00 0.00 0.00 0.00 0.00 0.00 0.00 0.01 0.02 0.02 0.03 0.03 0.02 0.02 0.02 0.02 0.02 0.02 0.02 0.02 0.03 0.03 0.03 0.02 0.04 0.05 0.03 0.01 0.01 0.02 0.01 0.01 0.02 0.02 0.02 0.01 0.01 0.01 0.01 0.01 0.00 0.00 0.01
0.00 0.00 0.00 0.00 0.00 0.00 0.00 0.01 0.03 0.03 0.03 0.03 0.03 0.03 0.02 0.02 0.02 0.02 0.02 0.02 0.02 0.02 0.03 0.03 0.03 0.04 0.05 0.04 0.02 0.03 0.02 0.01 0.01 0.02 0.02 0.02 0.02 0.01 0.01 0.01 0.01 0.01 0.01
0.00 0.00 0.00 0.00 0.00 0.00 0.01 0.01 0.02 0.04 0.04 0.04 0.03 0.03 0.03 0.02 0.01 0.01 0.02 0.02 0.01 0.02 0.02 0.02 0.03 0.04 0.05 0.05 0.04 0.03 0.03 0.01 0.01 0.01 0.02 0.02 0.01 0.01 0.01 0.02 0.02 0.02 0.01
0.00 0.00 0.00 0.00 0.00 0.01 0.01 0.02 0.02 0.03 0.04 0.04 0.04 0.02 0.02 0.02 0.02 0.01 0.01 0.01 0.01 0.01 0.01 0.01 0.02 0.02 0.03 0.04 0.04 0.03 0.02 0.01 0.01 0.01 0.01 0.01 0.01 0.01 0.01 0.02 0.02 0.02 0.02
0.00 0.00 0.00 0.00 0.00 0.01 0.02 0.02 0.03 0.04 0.05 0.05 0.05 0.03 0.02 0.02 0.02 0.01 0.01 0.01 0.01 0.01 0.01 0.01 0.01 0.01 0.02 0.02 0.03 0.03 0.03 0.02 0.01 0.01 0.01 0.01 0.01 0.01 0.01 0.01 0.02 0.02 0.02
0.00 0.00 0.00 0.00 0.00 0.01 0.02 0.03 0.04 0.04 0.05 0.06 0.06 0.05 0.02 0.01 0.01 0.02 0.01 0.01 0.00 0.00 0.00 0.00 0.01 0.01 0.01 0.01 0.02 0.02 0.03 0.02 0.01 0.01 0.01 0.02 0.02 0.01 0.01 0.01 0.01 0.02 0.02
0.00 0.00 0.00 0.00 0.00 0.00 0.01 0.03 0.04 0.05 0.05 0.05 0.06 0.06 0.04 0.02 0.01 0.01 0.01 0.01 0.01 0.00 0.00 0.00 0.01 0.01 0.01 0.01 0.01 0.02 0.03 0.03 0.02 0.02 0.01 0.01 0.02 0.02 0.02 0.01 0.01 0.01 0.01
0.00 0.00 0.00 0.00 0.00 0.00 0.01 0.02 0.04 0.04 0.05 0.05 0.06 0.06 0.06 0.03 0.01 0.01 0.02 0.01 0.01 0.01 0.00 0.00 0.00 0.01 0.01 0.01 0.01 0.01 0.02 0.03 0.02 0.02 0.02 0.01 0.02 0.02 0.02 0.02 0.02 0.01 0.01
0.00 0.00 0.00 0.00 0.00 0.00 0.01 0.02 0.03 0.04 0.04 0.04 0.05 0.05 0.05 0.04 0.02 0.01 0.02 0.02 0.02 0.02 0.01 0.00 0.00 0.01 0.01 0.01 0.01 0.01 0.01 0.02 0.02 0.02 0.02 0.02 0.01 0.02 0.02 0.02 0.02 0.02 0.02
0.00 0.00 0.00 0.00 0.00 0.01 0.01 0.01 0.02 0.03 0.03 0.03 0.04 0.04 0.04 0.05 0.04 0.02 0.02 0.02 0.02 0.02 0.02 0.02 0.01 0.01 0.01 0.01 0.01 0.01 0.01 0.01 0.01 0.02 0.02 0.01 0.01 0.02 0.02 0.03 0.03 0.02 0.02
0.01 0.01 0.01 0.01 0.01 0.01 0.01 0.01 0.02 0.02 0.03 0.04 0.03 0.04 0.04 0.04 0.04 0.03 0.02 0.02 0.03 0.02 0.03 0.04 0.03 0.02 0.02 0.01 0.01 0.01 0.01 0.01 0.01 0.01 0.02 0.02 0.01 0.02 0.02 0.03 0.03 0.03 0.02
0.01 0.01 0.01 0.01 0.01 0.01 0.01 0.01 0.01 0.02 0.03 0.04 0.04 0.03 0.04 0.04 0.04 0.03 0.02 0.02 0.02 0.03 0.02 0.04 0.04 0.03 0.03 0.03 0.03 0.02 0.02 0.01 0.01 0.01 0.01 0.02 0.02 0.02 0.02 0.03 0.04 0.03 0.03
0.01 0.01 0.01 0.01 0.01 0.01 0.01 0.01 0.01 0.02 0.03 0.03 0.03 0.03 0.03 0.04 0.03 0.03 0.03 0.02 0.02 0.02 0.02 0.03 0.03 0.03 0.03 0.02 0.03 0.03 0.04 0.04 0.03 0.03 0.03 0.03 0.03 0.03 0.02 0.03 0.04 0.04 0.05
0.01 0.01 0.01 0.01 0.01 0.01 0.01 0.01 0.01 0.01 0.02 0.03 0.03 0.03 0.03 0.03 0.03 0.03 0.03 0.03 0.02 0.02 0.02 0.02 0.02 0.02 0.03 0.02 0.02 0.02 0.02 0.03 0.03 0.04 0.04 0.04 0.04 0.04 0.04 0.04 0.05 0.06 0.06
0.01 0.01 0.01 0.01 0.01 0.02 0.02 0.02 0.02 0.03 0.03 0.03 0.04 0.03 0.03 0.02 0.03 0.03 0.03 0.03 0.03 0.03 0.03 0.02 0.02 0.02 0.02 0.02 0.02 0.01 0.01 0.01 0.01 0.02 0.03 0.03 0.04 0.04 0.03 0.03 0.04 0.06 0.06
0.01 0.01 0.01 0.01 0.01 0.01 0.02 0.02 0.02 0.03 0.03 0.03 0.03 0.03 0.02 0.02 0.02 0.02 0.02 0.02 0.03 0.04 0.05 0.03 0.03 0.03 0.02 0.02 0.03 0.02 0.01 0.01 0.01 0.01 0.01 0.02 0.03 0.03 0.03 0.04 0.04 0.05 0.05
0.01 0.01 0.01 0.01 0.01 0.01 0.01 0.01 0.01 0.01 0.02 0.02 0.02 0.02 0.02 0.02 0.01 0.01 0.01 0.01 0.02 0.03 0.04 0.05 0.05 0.04 0.03 0.03 0.03 0.03 0.02 0.02 0.02 0.02 0.02 0.02 0.02 0.02 0.02 0.03 0.05 0.05 0.04
0.01 0.01 0.01 0.01 0.01 0.01 0.01 0.01 0.01 0.01 0.01 0.02 0.02 0.02 0.02 0.01 0.01 0.01 0.01 0.01 0.01 0.02 0.03 0.04 0.06 0.06 0.05 0.04 0.03 0.03 0.03 0.03 0.03 0.03 0.02 0.02 0.02 0.02 0.03 0.03 0.04 0.04 0.04
0.02 0.01 0.01 0.01 0.01 0.01 0.01 0.01 0.01 0.01 0.01 0.01 0.02 0.02 0.02 0.02 0.02 0.02 0.02 0.02 0.02 0.02 0.02 0.03 0.04 0.05 0.06 0.05 0.04 0.04 0.04 0.04 0.04 0.03 0.02 0.02 0.02 0.02 0.03 0.03 0.03 0.03 0.03
0.01 0.01 0.01 0.01 0.00 0.00 0.00 0.01 0.01 0.01 0.01 0.01 0.01 0.02 0.02 0.02 0.03 0.03 0.03 0.03 0.02 0.02 0.02 0.02 0.02 0.03 0.04 0.05 0.04 0.04 0.04 0.04 0.04 0.03 0.03 0.02 0.02 0.02 0.03 0.03 0.03 0.04 0.03
0.01 0.01 0.01 0.01 0.00 0.00 0.00 0.00 0.00 0.01 0.01 0.01 0.01 0.02 0.02 0.02 0.03 0.03 0.02 0.03 0.03 0.02 0.02 0.02 0.02 0.02 0.03 0.03 0.03 0.03 0.03 0.03 0.03 0.03 0.02 0.02 0.02 0.02 0.03 0.03 0.03 0.03 0.03
0.01 0.01 0.01 0.01 0.00 0.00 0.00 0.00 0.00 0.00 0.01 0.01 0.01 0.01 0.01 0.01 0.01 0.02 0.02 0.02 0.02 0.02 0.02 0.02 0.01 0.02 0.03 0.03 0.02 0.02 0.02 0.02 0.03 0.02 0.02 0.01 0.02 0.02 0.03 0.03 0.03 0.03 0.03
0.01 0.01 0.01 0.01 0.00 0.00 0.00 0.00 0.00 0.00 0.01 0.01 0.01 0.01 0.01 0.01 0.01 0.01 0.01 0.01 0.01 0.01 0.02 0.02 0.02 0.01 0.02 0.03 0.03 0.02 0.02 0.02 0.02 0.02 0.02 0.02 0.02 0.02 0.02 0.03 0.03 0.03 0.03
0.01 0.01 0.01 0.01 0.01 0.01 0.01 0.01 0.01 0.01 0.01 0.01 0.01 0.01 0.01 0.01 0.01 0.01 0.01 0.01 0.01 0.01 0.02 0.02 0.02 0.02 0.02 0.02 0.03 0.03 0.02 0.02 0.02 0.03 0.02 0.02 0.02 0.02 0.02 0.02 0.03 0.03 0.03
0.01 0.01 0.01 0.01 0.01 0.01 0.01 0.01 0.01 0.01 0.01 0.01 0.01 0.01 0.01 0.01 0.01 0.01 0.01 0.01 0.01 0.02 0.03 0.03 0.03 0.03 0.03 0.03 0.03 0.03 0.03 0.02 0.02 0.03 0.03 0.02 0.02 0.02 0.02 0.02 0.02 0.03 0.04
0.01 0.01 0.01 0.01 0.01 0.01 0.01 0.01 0.01 0.01 0.01 0.01 0.01 0.01 0.01 0.01 0.01 0.01 0.01 0.01 0.01 0.01 0.02 0.02 0.03 0.04 0.04 0.04 0.04 0.04 0.04 0.04 0.03 0.04 0.03 0.03 0.02 0.02 0.02 0.02 0.03 0.03 0.03
MSLP
1013.79 1014.57 1015.41 1016.25 1017.07 1017.87 1018.64 1019.41 1020.18 1020.95 1021.71 1022.45 1023.14 1023.76 1024.30 1024.75 1025.13 1025.45 1025.72 1025.97 1026.22 1026.46 1026.71 1026.97 1027.21 1027.44 1027.66 1027.85 1028.03 1028.20 1028.38 1028.56 1028.76 1028.96 1029.18 1029.39 1029.59 1029.77 1029.90 1029.98 1030.01 1029.99 1029.92
1012.71 1013.50 1014.36 1015.25 1016.15 1017.02 1017.89 1018.76 1019.63 1020.50 1021.36 1022.18 1022.94 1023.62 1024.21 1024.70 1025.09 1025.42 1025.70 1025.95 1026.21 1026.47 1026.74 1027.01 1027.28 1027.53 1027.76 1027.97 1028.15 1028.32 1028.48 1028.65 1028.83 1029.02 1029.22 1029.44 1029.64 1029.84 1030.01 1030.15 1030.25 1030.31 1030.33
1011.81 1012.57 1013.43 1014.35 1015.28 1016.23 1017.19 1018.16 1019.14 1020.11 1021.06 1021.96 1022.79 1023.51 1024.13 1024.62 1025.02 1025.33 1025.60 1025.86 1026.11 1026.38 1026.66 1026.96 1027.25 1027.52 1027.76 1027.98 1028.16 1028.33 1028.48 1028.63 1028.79 1028.97 1029.16 1029.36 1029.57 1029.78 1029.98 1030.17 1030.34 1030.48 1030.60
1011.24 1011.94 1012.76 1013.66 1014.60 1015.59 1016.60 1017.64 1018.71 1019.76 1020.80 1021.76 1022.63 1023.38 1024.00 1024.49 1024.87 1025.17 1025.42 1025.67 1025.92 1026.19 1026.49 1026.80 1027.12 1027.41 1027.67 1027.90 1028.10 1028.26 1028.41 1028.56 1028.71 1028.87 1029.04 1029.24 1029.44 1029.66 1029.88 1030.10 1030.32 1030.53 1030.72
1011.12 1011.73 1012.46 1013.29 1014.19 1015.16 1016.18 1017.25 1018.35 1019.46 1020.54 1021.54 1022.43 1023.19 1023.81 1024.28 1024.64 1024.92 1025.16 1025.40 1025.65 1025.94 1026.25 1026.58 1026.92 1027.23 1027.52 1027.77 1027.98 1028.16 1028.32 1028.47 1028.62 1028.78 1028.95 1029.13 1029.33 1029.54 1029.76 1030.00 1030.25 1030.50 1030.74
1011.48 1011.98 1012.59 1013.30 1014.10 1014.99 1015.95 1016.99 1018.07 1019.18 1020.26 1021.26 1022.16 1022.91 1023.52 1023.98 1024.32 1024.60 1024.83 1025.07 1025.34 1025.64 1025.98 1026.33 1026.69 1027.03 1027.34 1027.61 1027.85 1028.05 1028.23 1028.40 1028.56 1028.73 1028.90 1029.08 1029.28 1029.48 1029.70 1029.93 1030.18 1030.44 1030.69
1012.27 1012.65 1013.12 1013.68 1014.33 1015.07 1015.92 1016.85 1017.87 1018.92 1019.95 1020.93 1021.80 1022.54 1023.13 1023.59 1023.94 1024.22 1024.47 1024.72 1025.01 1025.34 1025.70 1026.08 1026.46 1026.82 1027.15 1027.44 1027.70 1027.92 1028.13 1028.32 1028.51 1028.70 1028.89 1029.08 1029.28 1029.47 1029.68 1029.90 1030.14 1030.38 1030.63
1013.39 1013.65 1013.97 1014.36 1014.82 1015.38 1016.06 1016.84 1017.73 1018.67 1019.63 1020.54 1021.37 1022.08 1022.67 1023.13 1023.50 1023.80 1024.08 1024.37 1024.69 1025.05 1025.43 1025.83 1026.22 1026.59 1026.93 1027.24 1027.51 1027.76 1027.99 1028.22 1028.44 1028.66 1028.87 1029.08 1029.29 1029.49 1029.69 1029.90 1030.12 1030.35 1030.57
1014.65 1014.83 1015.02 1015.23 1015.50 1015.87 1016.34 1016.94 1017.67 1018.47 1019.31 1020.14 1020.91 1021.59 1022.17 1022.64 1023.03 1023.37 1023.69 1024.02 1024.37 1024.75 1025.15 1025.56 1025.96 1026.33 1026.66 1026.97 1027.25 1027.51 1027.76 1028.02 1028.27 1028.52 1028.77 1029.02 1029.25 1029.46 1029.67 1029.88 1030.09 1030.31 1030.52
1015.92 1016.05 1016.14 1016.20 1016.30 1016.47 1016.74 1017.15 1017.69 1018.34 1019.05 1019.77 1020.47 1021.11 1021.67 1022.14 1022.55 1022.92 1023.28 1023.64 1024.02 1024.42 1024.83 1025.24 1025.62 1025.98 1026.30 1026.60 1026.87 1027.13 1027.40 1027.67 1027.95 1028.24 1028.53 1028.81 1029.07 1029.32 1029.55 1029.78 1030.00 1030.22 1030.42
1017.07 1017.19 1017.22 1017.18 1017.14 1017.15 1017.25 1017.47 1017.84 1018.32 1018.89 1019.50 1020.11 1020.69 1021.21 1021.68 1022.09 1022.48 1022.85 1023.23 1023.62 1024.03 1024.43 1024.82 1025.18 1025.52 1025.81 1026.09 1026.35 1026.60 1026.87 1027.15 1027.46 1027.77 1028.09 1028.40 1028.71 1028.99 1029.26 1029.51 1029.76 1030.00 1030.23
1018.07 1018.21 1018.22 1018.12 1017.99 1017.88 1017.84 1017.92 1018.14 1018.47 1018.90 1019.39 1019.89 1020.39 1020.85 1021.28 1021.67 1022.04 1022.40 1022.77 1023.15 1023.54 1023.92 1024.28 1024.62 1024.92 1025.19 1025.44 1025.68 1025.93 1026.19 1026.48 1026.79 1027.12 1027.46 1027.80 1028.13 1028.45 1028.75 1029.04 1029.32 1029.60 1029.86
1018.94 1019.12 1019.13 1019.03 1018.85 1018.67 1018.55 1018.52 1018.60 1018.81 1019.10 1019.46 1019.85 1020.25 1020.62 1020.97 1021.30 1021.63 1021.95 1022.28 1022.62 1022.97 1023.32 1023.65 1023.95 1024.23 1024.48 1024.71 1024.93 1025.16 1025.41 1025.69 1026.00 1026.33 1026.67 1027.02 1027.37 1027.70 1028.03 1028.35 1028.67 1028.98 1029.28
1019.75 1019.96 1020.01 1019.92 1019.74 1019.54 1019.36 1019.26 1019.26 1019.35 1019.52 1019.76 1020.02 1020.29 1020.55 1020.80 1021.04 1021.28 1021.53 1021.79 1022.08 1022.38 1022.68 1022.97 1023.24 1023.49 1023.72 1023.93 1024.14 1024.36 1024.59 1024.86 1025.15 1025.46 1025.79 1026.13 1026.46 1026.80 1027.13 1027.46 1027.79 1028.13 1028.47
1020.58 1020.81 1020.89 1020.83 1020.68 1020.48 1020.30 1020.15 1020.08 1020.08 1020.15 1020.26 1020.39 1020.53 1020.66 1020.79 1020.91 1021.04 1021.20 1021.38 1021.59 1021.82 1022.07 1022.32 1022.56 1022.78 1022.99 1023.19 1023.38 1023.58 1023.80 1024.04 1024.30 1024.58 1024.87 1025.17 1025.48 1025.79 1026.10 1026.43 1026.76 1027.11 1027.47
1021.48 1021.72 1021.82 1021.79 1021.67 1021.51 1021.33 1021.17 1021.05 1020.98 1020.95 1020.94 1020.95 1020.95 1020.95 1020.95 1020.95 1020.97 1021.02 1021.10 1021.23 1021.39 1021.57 1021.78 1021.98 1022.17 1022.36 1022.54 1022.71 1022.89 1023.08 1023.28 1023.49 1023.73 1023.97 1024.22 1024.48 1024.75 1025.03 1025.33 1025.64 1025.98 1026.34
1022.48 1022.70 1022.80 1022.81 1022.72 1022.59 1022.43 1022.26 1022.12 1021.99 1021.87 1021.77 1021.66 1021.54 1021.42 1021.29 1021.17 1021.08 1021.03 1021.02 1021.06 1021.15 1021.27 1021.41 1021.56 1021.72 1021.87 1022.01 1022.15 1022.29 1022.44 1022.59 1022.76 1022.93 1023.12 1023.31 1023.52 1023.73 1023.97 1024.23 1024.51 1024.83 1025.18
1023.55 1023.74 1023.84 1023.85 1023.80 1023.69 1023.55 1023.38 1023.21 1023.04 1022.86 1022.67 1022.47 1022.25 1022.02 1021.80 1021.58 1021.40 1021.26 1021.17 1021.13 1021.14 1021.19 1021.26 1021.35 1021.45 1021.54 1021.63 1021.71 1021.79 1021.88 1021.97 1022.07 1022.19 1022.31 1022.45 1022.60 1022.77 1022.96 1023.18 1023.44 1023.73 1024.06
1024.65 1024.79 1024.88 1024.90 1024.86 1024.77 1024.64 1024.47 1024.28 1024.07 1023.84 1023.59 1023.32 1023.03 1022.73 1022.43 1022.15 1021.90 1021.69 1021.53 1021.42 1021.36 1021.33 1021.32 1021.33 1021.34 1021.35 1021.35 1021.35 1021.36 1021.37 1021.39 1021.42 1021.47 1021.54 1021.62 1021.73 1021.86 1022.03 1022.22 1022.45 1022.72 1023.03
1025.71 1025.82 1025.89 1025.91 1025.87 1025.79 1025.66 1025.49 1025.29 1025.05 1024.78 1024.48 1024.16 1023.83 1023.48 1023.14 1022.82 1022.53 1022.28 1022.06 1021.89 1021.75 1021.64 1021.54 1021.45 1021.36 1021.26 1021.16 1021.06 1020.97 1020.88 1020.82 1020.78 1020.77 1020.78 1020.82 1020.90 1021.01 1021.15 1021.32 1021.54 1021.80 1022.09
1026.71 1026.78 1026.83 1026.85 1026.81 1026.73 1026.60 1026.42 1026.20 1025.93 1025.64 1025.31 1024.96 1024.60 1024.24 1023.88 1023.55 1023.24 1022.95 1022.70 1022.47 1022.26 1022.07 1021.87 1021.67 1021.46 1021.25 1021.03 1020.81 1020.61 1020.43 1020.28 1020.16 1020.08 1020.05 1020.05 1020.10 1020.18 1020.31 1020.47 1020.67 1020.92 1021.19
1027.61 1027.66 1027.71 1027.71 1027.68 1027.59 1027.45 1027.25 1027.01 1026.73 1026.41 1026.06 1025.70 1025.33 1024.96 1024.61 1024.27 1023.95 1023.65 1023.37 1023.09 1022.82 1022.54 1022.25 1021.95 1021.62 1021.29 1020.95 1020.62 1020.31 1020.03 1019.78 1019.59 1019.45 1019.36 1019.32 1019.33 1019.39 1019.49 1019.63 1019.82 1020.04 1020.29
1028.42 1028.47 1028.51 1028.51 1028.46 1028.36 1028.21 1028.00 1027.74 1027.43 1027.10 1026.74 1026.37 1026.00 1025.63 1025.28 1024.94 1024.62 1024.31 1024.00 1023.69 1023.37 1023.02 1022.64 1022.24 1021.82 1021.38 1020.93 1020.50 1020.09 1019.72 1019.40 1019.13 1018.92 1018.77 1018.68 1018.64 1018.65 1018.70 1018.80 1018.94 1019.12 1019.34
1029.17 1029.21 1029.24 1029.23 1029.18 1029.06 1028.89 1028.67 1028.39 1028.07 1027.72 1027.35 1026.98 1026.61 1026.25 1025.90 1025.56 1025.23 1024.91 1024.58 1024.23 1023.86 1023.45 1023.01 1022.54 1022.04 1021.52 1021.00 1020.49 1020.01 1019.56 1019.17 1018.83 1018.55 1018.33 1018.17 1018.05 1017.99 1017.97 1018.00 1018.06 1018.17 1018.32
1029.86 1029.90 1029.92 1029.90 1029.82 1029.70 1029.51 1029.27 1028.97 1028.64 1028.29 1027.91 1027.54 1027.16 1026.80 1026.45 1026.11 1025.77 1025.43 1025.07 1024.70 1024.29 1023.84 1023.36 1022.84 1022.29 1021.73 1021.16 1020.61 1020.08 1019.58 1019.13 1018.74 1018.39 1018.09 1017.84 1017.64 1017.47 1017.35 1017.27 1017.22 1017.23 1017.29
1030.49 1030.52 1030.52 1030.48 1030.39 1030.24 1030.04 1029.79 1029.49 1029.15 1028.79 1028.42 1028.05 1027.67 1027.31 1026.95 1026.60 1026.24 1025.88 1025.50 1025.09 1024.65 1024.18 1023.67 1023.13 1022.57 1021.99 1021.42 1020.85 1020.30 1019.78 1019.30 1018.86 1018.45 1018.07 1017.73 1017.42 1017.14 1016.89 1016.67 1016.50 1016.38 1016.32
Thickness
5548 5547 5546 5545 5543 5543 5543 5542 5541 5540 5539 5538 5537 5536 5535 5535 5535 5537 5537 5539 5541 5542 5544 5546 5548 5550 5551 5552 5553 5554 5554 5555 5557 5558 5560 5562 5565 5567 5568 5570 5571 5573 5574
5536 5536 5535 5534 5534 5533 5532 5532 5531 5530 5529 5528 5527 5525 5524 5523 5523 5524 5525 5527 5529 5531 5532 5534 5536 5537 5539 5540 5541 5542 5542 5543 5544 5545 5546 5547 5551 5554 5557 5558 5560 5561 5563
5527 5526 5525 5523 5522 5522 5522 5522 5521 5520 5518 5517 5515 5513 5511 5510 5510 5512 5513 5515 5517 5519 5521 5522 5524 5525 5527 5529 5530 5530 5531 5530 5531 5533 5534 5534 5536 5538 5543 5545 5547 5549 5551
5517 5516 5515 5513 5512 5512 5511 5511 5510 5508 5507 5505 5504 5503 5501 5500 5500 5500 5501 5503 5505 5507 5508 5510 5512 5513 5515 5516 5518 5519 5519 5520 5520 5520 5522 5523 5524 5523 5527 5531 5534 5536 5538
5506 5505 5504 5503 5502 5501 5500 5499 5498 5497 5495 5494 5493 5492 5491 5489 5488 5488 5489 5490 5492 5494 5496 5498 5499 5501 5502 5504 5505 5506 5508 5509 5509 5509 5509 5510 5511 5512 5513 5516 5519 5523 5526
5494 5494 5493 5491 5490 5489 5488 5487 5487 5486 5484 5483 5482 5481 5480 5479 5478 5477 5478 5479 5480 5482 5484 5486 5488 5489 5490 5492 5493 5495 5496 5497 5498 5498 5499 5499 5500 5500 5501 5502 5504 5507 5513
5482 5482 5481 5480 5479 5477 5476 5476 5475 5475 5473 5472 5471 5470 5469 5469 5468 5468 5468 5469 5470 5472 5473 5475 5476 5478 5479 5480 5482 5483 5485 5486 5487 5488 5488 5489 5490 5490 5490 5491 5492 5494 5499
5469 5469 5469 5468 5467 5466 5465 5464 5464 5464 5462 5461 5460 5459 5459 5458 5459 5459 5459 5460 5461 5463 5464 5464 5466 5467 5468 5470 5471 5472 5473 5475 5476 5477 5477 5478 5479 5479 5480 5480 5479 5480 5484
5457 5456 5456 5455 5455 5454 5454 5452 5452 5452 5452 5451 5450 5449 5449 5448 5449 5449 5449 5450 5451 5452 5453 5454 5455 5456 5457 5458 5459 5461 5463 5463 5465 5466 5466 5467 5468 5468 5469 5469 5469 5469 5471
5442 5442 5442 5443 5442 5442 5442 5441 5441 5441 5441 5440 5440 5440 5439 5439 5439 5438 5439 5440 5441 5442 5442 5443 5444 5445 5446 5447 5448 5450 5452 5452 5453 5454 5455 5456 5456 5456 5457 5457 5457 5458 5459
5428 5429 5429 5428 5428 5428 5428 5428 5428 5428 5428 5428 5429 5429 5428 5428 5428 5428 5429 5430 5431 5432 5432 5433 5434 5435 5436 5437 5438 5439 5440 5441 5442 5442 5443 5445 5445 5444 5444 5445 5445 5446 5447
5414 5414 5414 5414 5414 5414 5414 5415 5415 5415 5416 5416 5416 5416 5416 5417 5417 5417 5418 5420 5420 5421 5422 5422 5423 5424 5425 5426 5427 5428 5428 5429 5430 5431 5431 5432 5433 5433 5433 5433 5434 5434 5435
5399 5399 5399 5399 5400 5400 5400 5401 5402 5403 5403 5403 5403 5404 5405 5405 5406 5406 5407 5408 5409 5410 5410 5411 5412 5413 5413 5414 5415 5416 5416 5417 5418 5419 5419 5420 5420 5421 5421 5421 5422 5422 5424
5387 5387 5386 5386 5386 5386 5387 5387 5388 5389 5390 5390 5391 5391 5393 5394 5395 5395 5395 5396 5397 5398 5399 5400 5400 5401 5402 5403 5404 5404 5404 5405 5406 5406 5407 5407 5408 5409 5409 5409 5410 5410 5410
5377 5376 5376 5375 5374 5374 5374 5375 5376 5376 5377 5377 5378 5379 5380 5381 5383 5383 5383 5384 5384 5385 5386 5387 5388 5389 5390 5391 5392 5392 5392 5392 5393 5394 5394 5395 5395 5397 5397 5398 5398 5397 5397
5367 5367 5366 5365 5364 5364 5364 5364 5363 5363 5363 5364 5365 5366 5367 5369 5370 5371 5371 5371 5371 5372 5373 5375 5376 5376 5378 5379 5380 5380 5380 5380 5380 5381 5382 5382 5383 5384 5384 5385 5386 5385 5385
5357 5356 5356 5356 5355 5353 5353 5352 5351 5351 5352 5352 5353 5353 5355 5356 5357 5358 5358 5358 5358 5359 5360 5361 5362 5363 5365 5367 5368 5368 5368 5368 5368 5368 5368 5369 5370 5370 5370 5371 5372 5372 5372
5347 5347 5346 5346 5345 5343 5342 5341 5340 5339 5340 5340 5341 5341 5342 5342 5343 5344 5344 5344 5345 5345 5346 5347 5348 5349 5351 5354 5355 5355 5355 5355 5355 5355 5355 5355 5356 5356 5357 5358 5358 5358 5359
5335 5336 5336 5335 5334 5332 5331 5330 5329 5328 5328 5328 5329 5329 5329 5329 5329 5330 5330 5331 5331 5332 5333 5334 5336 5336 5338 5339 5341 5342 5342 5341 5340 5341 5342 5342 5343 5345 5345 5345 5346 5347 5347
5325 5325 5325 5325 5323 5322 5320 5319 5318 5317 5317 5318 5318 5318 5318 5318 5318 5318 5318 5319 5319 5319 5320 5321 5321 5322 5324 5325 5327 5328 5328 5328 5328 5328 5329 5330 5331 5332 5332 5332 5332 5334 5334
5314 5314 5314 5314 5313 5311 5310 5309 5308 5307 5307 5306 5306 5307 5307 5307 5307 5307 5307 5307 5307 5307 5307 5308 5309 5309 5311 5311 5313 5314 5314 5315 5315 5315 5316 5317 5318 5319 5319 5320 5320 5322 5321
5304 5303 5303 5303 5302 5301 5300 5299 5297 5297 5296 5295 5295 5295 5296 5296 5297 5296 5296 5295 5295 5294 5294 5295 5296 5296 5296 5298 5300 5301 5302 5303 5303 5304 5304 5304 5305 5306 5306 5307 5308 5308 5308
5294 5293 5292 5292 5291 5290 5289 5288 5288 5287 5286 5285 5284 5285 5285 5285 5285 5285 5284 5283 5282 5282 5282 5282 5283 5283 5284 5285 5287 5289 5290 5290 5290 5292 5293 5293 5293 5293 5292 5293 5294 5294 5293
5283 5282 5282 5282 5281 5280 5280 5279 5278 5277 5276 5275 5274 5274 5274 5274 5274 5274 5273 5272 5271 5270 5271 5271 5271 5271 5272 5272 5273 5275 5276 5277 5278 5279 5280 5281 5280 5280 5280 5280 5280 5280 5280
5273 5272 5271 5272 5271 5271 5270 5270 5268 5267 5266 5265 5264 5264 5263 5263 5262 5262 5261 5261 5261 5260 5260 5260 5260 5259 5260 5261 5263 5263 5264 5264 5264 5264 5265 5265 5266 5266 5266 5266 5267 5267 5267
5262 5262 5262 5262 5261 5261 5260 5260 5259 5258 5257 5256 5255 5254 5253 5252 5251 5251 5250 5251 5250 5251 5251 5250 5250 5250 5250 5251 5252 5252 5253 5252 5252 5252 5251 5252 5252 5253 5254 5254 5255 5254 5255